[[{"header":{"parameterUnit":"m.s-1","parameterCategory":1,"la1":30.2991,"la2":30.254,"lo1":-89.0895,"lo2":-89.0444,"dy":0.0017,"dx":0.0017,"nx":28,"ny":28,"refTime":"2025-06-01T03:00:00:Z","depth":0,"parameterNumber":2,"parameterNumberName":"U-component_of_WINDS"},"data":[0,0,0,0,0,0,0,0,0,0,0,0,0,0,0,0,0,0,0,0,0,0,0,0,0,0,0,0,0,0,0,0,0,0,0,0,0,0,0,0,0,0,0,0,0,0,0,0,0,0,0,0,0,0,0,0,0,0,-3.6239,-3.6239,0,-3.6231,-3.6231,-3.6231,-3.6153,-3.6151,-3.6149,-3.6147,-3.6139,-3.6141,-3.6142,0,0,0,0,0,0,0,0,0,0,0,0,0,-3.6186,-3.6188,-3.6239,-3.6239,-3.6239,-3.6231,-3.6231,-3.6231,-3.6153,-3.6151,-3.6148,-3.6146,-3.6139,-3.6141,-3.6143,0,0,0,0,0,0,0,0,0,0,0,0,0,-3.6197,-3.6188,-3.6239,-3.6199,-3.6195,-3.6231,-3.6231,-3.6231,-3.6153,-3.615,-3.6148,-3.6145,-3.6138,-3.614,-3.6143,-3.6217,0,0,-3.615,-3.6151,0,0,0,0,0,0,0,0,-3.6197,-3.6199,-3.6205,-3.6202,-3.6198,-3.619,-3.621,-3.6226,-3.6154,-3.6169,-3.6147,-3.6143,-3.6159,-3.6159,-3.6164,-3.6217,-3.6216,-3.6151,-3.6152,-3.6153,-3.6154,0,0,0,0,0,0,0,-3.6196,-3.6199,-3.6236,-3.6205,-3.6201,-3.6181,-3.618,-3.6213,-3.6181,-3.6168,-3.6162,-3.6162,-3.6156,-3.6162,-3.6163,-3.6216,-3.615,-3.6153,-3.6154,-3.6155,-3.6329,-3.6332,0,0,0,0,0,0,-3.6201,-3.6199,-3.6236,-3.6236,-3.619,-3.6185,-3.6183,-3.6195,-3.618,-3.6175,-3.6165,-3.6159,-3.6159,-3.6161,-3.6163,-3.6248,-3.6153,-3.6155,-3.6157,-3.6326,-3.633,-3.6333,0,0,0,0,0,0,-3.62,-3.6205,-3.6236,-3.6216,-3.6218,-3.6189,-3.6204,-3.6197,-3.6202,-3.6178,-3.6172,-3.6177,-3.6157,-3.6159,-3.6204,-3.6247,-3.6156,-3.6159,-3.6322,-3.6327,-3.6332,-3.6419,0,0,0,0,0,0,-3.6199,-3.6205,-3.6232,-3.6217,-3.622,-3.6278,-3.6206,-3.6199,-3.6207,-3.6199,-3.6187,-3.6182,-3.6155,-3.6201,-3.6207,-3.6248,-3.6161,-3.6318,-3.6325,-3.633,-3.6413,-3.6427,-3.6439,0,0,0,0,0,-3.6197,-3.6257,-3.6234,-3.6239,-3.6253,-3.628,-3.6282,-3.6249,-3.6211,-3.6238,-3.6222,-3.6183,-3.6242,-3.6206,-3.6212,-3.6255,-3.6316,-3.6323,-3.633,-3.6407,-3.6424,-3.6438,0,0,0,0,0,0,-3.6278,-3.6255,-3.6228,-3.6286,-3.6286,-3.6267,-3.63,-3.6268,-3.6279,-3.627,-3.6229,-3.6227,-3.6278,-3.6271,-3.6232,-3.6326,-3.6272,-3.628,-3.6328,-3.6344,-3.6357,-3.6357,-3.6163,0,0,0,0,0,-3.6303,-3.6327,-3.6305,-3.6357,-3.6359,-3.633,-3.6341,-3.6315,-3.6313,-3.6313,-3.63,-3.63,-3.6318,-3.6331,-3.6347,-3.6412,-3.6408,-3.6445,-3.6458,-3.6469,-3.6476,-3.6509,-3.6525,-3.6357,-3.6357,-3.6357,0,0,-3.6354,-3.6344,-3.6361,-3.6374,-3.637,-3.6396,-3.633,-3.636,-3.6378,-3.6317,-3.6358,-3.635,-3.6347,-3.6402,-3.6426,-3.6398,-3.6522,-3.6478,-3.6486,-3.6488,-3.6518,-3.6534,-3.6549,-3.6362,-3.6361,-3.636,0,0,-3.6459,-3.6455,-3.6498,-3.6496,-3.6493,-3.6473,-3.6484,-3.6471,-3.6462,-3.6503,-3.6458,-3.648,-3.6513,-3.6512,-3.6516,-3.6624,-3.6588,-3.6631,-3.6698,-3.6731,-3.6744,-3.6756,-3.6793,-3.6807,-3.6638,-3.6639,-3.6639,0,-3.6523,-3.6559,-3.6524,-3.6557,-3.6563,-3.651,-3.6553,-3.6554,-3.6556,-3.6562,-3.6531,-3.6571,-3.6565,-3.6619,-3.6646,-3.6651,-3.6662,-3.663,-3.6745,-3.6756,-3.6767,-3.6802,-3.6816,-3.6644,-3.6643,-3.6643,-3.6642,0,-3.6637,-3.6663,-3.6699,-3.6702,-3.6713,-3.6751,-3.6722,-3.6737,-3.6712,-3.6696,-3.6738,-3.673,-3.6743,-3.6755,-3.673,-3.6806,-3.6788,-3.6752,-3.6696,-3.6788,-3.6821,-3.6834,-3.6651,-3.6649,-3.6648,-3.6646,0,0,-3.6791,-3.6776,-3.6789,-3.679,-3.6783,-3.6802,-3.6839,-3.6852,-3.6865,-3.6869,-3.6898,-3.6928,-3.6894,-3.6899,-3.6874,-3.6904,-3.6989,-3.6864,-3.6863,-3.6886,-3.7071,-3.7097,-3.7113,-3.6966,-3.6968,-3.697,-3.7071,0,-3.6892,-3.6952,-3.6922,-3.6986,-3.7009,-3.696,-3.6991,-3.6991,-3.6978,-3.6996,-3.6981,-3.7003,-3.6957,-3.696,-3.6987,-3.6973,-3.7025,-3.6965,-3.6991,-3.6993,-3.6992,-3.713,-3.7158,-3.7253,-3.7083,-3.7086,-3.7087,0,-3.7016,-3.7026,-3.7092,-3.7081,-3.709,-3.7118,-3.7128,-3.7146,-3.7145,-3.7133,-3.714,-3.7108,-3.7143,-3.709,-3.7137,-3.7097,-3.7107,-3.7101,-3.7104,-3.7104,-3.7044,-3.7132,-3.7283,-3.7297,-3.7107,-3.7105,-3.7104,0,-3.7121,-3.715,-3.7193,-3.7196,-3.7184,-3.7206,-3.7202,-3.7198,-3.7208,-3.7217,-3.7222,-3.7236,-3.7242,-3.7253,-3.7226,-3.719,-3.7277,-3.7222,-3.7268,-3.7269,-3.7287,-3.7286,-3.744,-3.7296,-3.7296,-3.7296,-3.7295,0,-3.7235,-3.7277,-3.724,-3.7266,-3.7312,-3.7278,-3.7325,-3.7316,-3.7313,-3.7337,-3.7296,-3.7319,-3.7283,-3.7303,-3.7283,-3.7325,-3.7329,-3.732,-3.7314,-3.7323,-3.7324,-3.7327,-3.7319,-3.73,-3.7299,-3.7298,-3.7297,0,-3.7359,-3.7335,-3.7379,-3.7365,-3.7363,-3.7397,-3.7385,-3.741,-3.7394,-3.7425,-3.7431,-3.7407,-3.7428,-3.7403,-3.7423,-3.7409,-3.7466,-3.745,-3.7466,-3.7461,-3.7508,-3.7504,-3.7668,-3.7688,-3.7533,-3.7535,-3.7536,0,-3.7432,-3.7464,-3.7453,-3.7467,-3.7465,-3.7487,-3.7497,-3.7465,-3.7478,-3.7479,-3.7503,-3.7521,-3.7534,-3.7571,-3.7555,-3.757,-3.7554,-3.7611,-3.7556,-3.7564,-3.7553,-3.7551,-3.7554,-3.7621,-3.7623,-3.7625,-3.7626,0,-3.7565,-3.7552,-3.7568,-3.7581,-3.7594,-3.7602,-3.7607,-3.762,-3.7587,-3.7603,-3.7625,-3.7635,-3.7655,-3.7674,-3.7684,-3.7681,-3.7648,-3.7644,-3.7655,-3.7664,-3.7671,-3.7667,-3.7495,-3.7639,-3.7638,-3.7637,-3.7636,-3.7636,-3.7665,-3.769,-3.7687,-3.7707,-3.7707,-3.7713,-3.7735,-3.7723,-3.7741,-3.7754,-3.7735,-3.7762,-3.776,-3.7772,-3.7772,-3.7793,-3.7768,-3.7785,-3.7789,-3.7793,-3.78,-3.7669,-3.7795,-3.7794,-3.7794,-3.7793,-3.7793,0,-3.7795,-3.7791,-3.7809,-3.7817,-3.7833,-3.7802,-3.7806,-3.7821,-3.7845,-3.7846,-3.786,-3.7885,-3.7903,-3.789,-3.7905,-3.7924,-3.791,-3.7929,-3.7927,-3.7926,-3.7821,-3.7809,-3.7941,-3.7941,-3.7941,-3.7941,-3.7941,-3.7941,-3.7864,-3.7905,-3.7892,-3.7934,-3.793,-3.7956,-3.7961,-3.7966,-3.7967,-3.7997,-3.8012,-3.8003,-3.7999,-3.8013,-3.8029,-3.8024,-3.8031,-3.8056,-3.8047,-3.7948,-3.7934,-3.792,-3.7908,-3.8058,-3.8059,-3.8149,-3.815,-3.8151]},{"header":{"parameterUnit":"m.s-1","parameterCategory":1,"la1":30.2991,"la2":30.254,"lo1":-89.0895,"lo2":-89.0444,"dy":0.0017,"dx":0.0017,"nx":28,"ny":28,"refTime":"2025-06-01T03:00:00:Z","depth":0,"parameterNumber":3,"parameterNumberName":"V-component_of_WINDS"},"data":[0,0,0,0,0,0,0,0,0,0,0,0,0,0,0,0,0,0,0,0,0,0,0,0,0,0,0,0,0,0,0,0,0,0,0,0,0,0,0,0,0,0,0,0,0,0,0,0,0,0,0,0,0,0,0,0,0,0,2.595,2.5951,0,2.5996,2.5996,2.5997,2.6025,2.6025,2.6025,2.6025,2.6068,2.6069,2.607,0,0,0,0,0,0,0,0,0,0,0,0,0,2.5885,2.5886,2.595,2.5951,2.5951,2.5996,2.5996,2.5997,2.6025,2.6025,2.6025,2.6025,2.6068,2.6069,2.6071,0,0,0,0,0,0,0,0,0,0,0,0,0,2.592,2.5886,2.595,2.5971,2.5973,2.5996,2.5996,2.5997,2.6025,2.6025,2.6025,2.6025,2.6068,2.6069,2.6071,2.6075,0,0,2.6075,2.6076,0,0,0,0,0,0,0,0,2.5918,2.5922,2.5967,2.5969,2.5972,2.6005,2.5989,2.6023,2.6025,2.6005,2.6025,2.6025,2.6047,2.605,2.6058,2.6077,2.6079,2.6075,2.6076,2.6077,2.6077,0,0,0,0,0,0,0,2.5915,2.592,2.5968,2.5968,2.5971,2.5977,2.5982,2.5996,2.6024,2.6007,2.6009,2.6014,2.6048,2.6057,2.6059,2.608,2.6075,2.6077,2.6078,2.6078,2.6106,2.6106,0,0,0,0,0,0,2.591,2.5918,2.5967,2.597,2.5945,2.5978,2.5984,2.5994,2.6024,2.6029,2.6014,2.6015,2.6054,2.6057,2.6061,2.6069,2.6077,2.6078,2.6079,2.6106,2.6106,2.6106,0,0,0,0,0,0,2.5909,2.5914,2.5965,2.5945,2.5951,2.5979,2.599,2.5995,2.6003,2.6029,2.6034,2.6017,2.6054,2.6059,2.6072,2.6071,2.6079,2.608,2.6106,2.6106,2.6106,2.6084,0,0,0,0,0,0,2.5907,2.5913,2.5916,2.5944,2.5952,2.5976,2.599,2.5996,2.6006,2.6008,2.6034,2.6038,2.6055,2.607,2.6073,2.6073,2.6082,2.6106,2.6106,2.6106,2.6085,2.6083,2.6082,0,0,0,0,0,2.5904,2.5907,2.5916,2.5922,2.5956,2.5976,2.598,2.6,2.6006,2.6008,2.6025,2.6037,2.607,2.6071,2.6075,2.6075,2.6107,2.6106,2.6106,2.6086,2.6084,2.6082,0,0,0,0,0,0,2.5877,2.5911,2.5921,2.5934,2.5952,2.598,2.5984,2.5997,2.6012,2.6014,2.6037,2.6042,2.6053,2.6065,2.6065,2.6082,2.609,2.609,2.6073,2.6071,2.6069,2.6066,2.6083,0,0,0,0,0,2.5872,2.5886,2.5915,2.5924,2.5932,2.5957,2.5966,2.598,2.5999,2.6006,2.6024,2.6041,2.6055,2.6064,2.6078,2.6087,2.6093,2.609,2.6088,2.6086,2.6086,2.6092,2.6091,2.6104,2.6104,2.6104,0,0,2.5863,2.5884,2.5891,2.5919,2.5934,2.5947,2.5963,2.5976,2.5985,2.6007,2.6022,2.6035,2.6056,2.6067,2.6073,2.6078,2.6084,2.6086,2.6084,2.6085,2.6092,2.6091,2.6089,2.6104,2.6104,2.6104,0,0,2.5853,2.587,2.5879,2.5895,2.5918,2.5935,2.5937,2.5964,2.5974,2.5989,2.6006,2.6018,2.6041,2.6056,2.6066,2.6062,2.6074,2.6066,2.6057,2.6062,2.6061,2.6061,2.6059,2.6059,2.6066,2.6066,2.6066,0,2.5838,2.5859,2.5882,2.5894,2.5906,2.5928,2.5937,2.5951,2.5977,2.5985,2.599,2.6021,2.6036,2.6052,2.6051,2.6058,2.6061,2.6063,2.606,2.6059,2.6059,2.6058,2.6057,2.6065,2.6065,2.6065,2.6065,0,2.584,2.5854,2.5859,2.5886,2.5898,2.5908,2.5932,2.5941,2.5954,2.597,2.5985,2.6004,2.6023,2.6028,2.604,2.6045,2.6047,2.6056,2.6065,2.6056,2.6056,2.6056,2.6063,2.6064,2.6064,2.6064,0,0,2.5813,2.5853,2.5855,2.5867,2.5896,2.5907,2.5918,2.5938,2.5946,2.5964,2.5974,2.5994,2.6003,2.6014,2.6028,2.6033,2.6029,2.6042,2.6042,2.6039,2.6036,2.6029,2.6029,2.6038,2.6038,2.6038,2.6035,0,2.5807,2.583,2.5851,2.5866,2.588,2.5902,2.5912,2.593,2.5945,2.5958,2.5974,2.5988,2.5998,2.6006,2.6012,2.6029,2.6029,2.6029,2.6046,2.6047,2.6041,2.6029,2.6021,2.6017,2.6034,2.6034,2.6034,0,2.5803,2.5822,2.5839,2.5866,2.5873,2.5882,2.5902,2.5915,2.5935,2.5946,2.5959,2.5975,2.5987,2.5995,2.6012,2.6012,2.602,2.603,2.603,2.6032,2.604,2.603,2.6017,2.6016,2.6034,2.6034,2.6034,0,2.5782,2.5811,2.5825,2.5836,2.5868,2.5874,2.5887,2.5909,2.592,2.5937,2.5944,2.5962,2.5972,2.5985,2.6005,2.6009,2.602,2.6029,2.6029,2.6029,2.603,2.603,2.6018,2.6036,2.6036,2.6036,2.6036,0,2.5774,2.5783,2.5817,2.5825,2.5836,2.586,2.587,2.5886,2.5904,2.5916,2.5935,2.5945,2.597,2.5983,2.5998,2.6011,2.6015,2.6023,2.6027,2.6022,2.6021,2.6027,2.6028,2.6036,2.6036,2.6036,2.6036,0,2.5752,2.5775,2.5792,2.5822,2.583,2.5836,2.5862,2.587,2.5887,2.5901,2.5906,2.5931,2.5948,2.5969,2.5991,2.6001,2.6012,2.6018,2.6005,2.6008,2.6006,2.6006,2.5998,2.5998,2.6015,2.6015,2.6015,0,2.5745,2.5753,2.5784,2.5794,2.5808,2.5823,2.5835,2.5858,2.5869,2.5894,2.59,2.5918,2.5934,2.5959,2.5979,2.5996,2.6003,2.5999,2.6005,2.6,2.6003,2.6002,2.6003,2.5997,2.5996,2.5996,2.5996,0,2.573,2.5741,2.5758,2.5779,2.5793,2.581,2.5828,2.5834,2.5862,2.5873,2.5891,2.5903,2.5927,2.5944,2.5965,2.5978,2.5991,2.5994,2.5995,2.5989,2.5981,2.5986,2.6001,2.5994,2.5994,2.5994,2.5994,2.5994,2.5716,2.5724,2.5748,2.5766,2.5782,2.5799,2.5809,2.5827,2.5843,2.5865,2.5878,2.5895,2.5916,2.5945,2.5957,2.5971,2.5976,2.5977,2.5977,2.5977,2.5975,2.598,2.5974,2.5974,2.5974,2.5974,2.5975,0,2.5702,2.5719,2.5735,2.5761,2.5775,2.5788,2.5808,2.5819,2.5834,2.5853,2.5869,2.5889,2.5906,2.5928,2.5947,2.5953,2.596,2.5958,2.5957,2.596,2.597,2.5967,2.5952,2.5952,2.5952,2.5952,2.5952,2.5952,2.5697,2.5712,2.5726,2.5749,2.5766,2.5784,2.5794,2.581,2.5825,2.5847,2.5862,2.5877,2.5897,2.5917,2.5934,2.594,2.5946,2.5941,2.5949,2.5957,2.5959,2.5961,2.5959,2.5942,2.5942,2.5938,2.5938,2.5938]}]]